Regional Weather Roundup
Issued by NWS

Home | Current Version | Previous Version | Graphics & Text | Print | Product List | Glossary On
Versions: 1 2 3 4 5 6 7 8 9 10 11 12 13 14 15 16 17 18 19 20 21 22 23 24 25 26 27 28 29 30 31 32 33 34 35 36 37 38 39 40 41 42 43 44 45 46 47 48 49 50
000
ASUS43 KLMK 021102
RWRKY
KENTUCKY REGIONAL WEATHER ROUNDUP
NATIONAL WEATHER SERVICE LOUISVILLE KY
600 AM EST FRI DEC 02 2016

NOTE "FAIR" INDICATES FEW OR NO CLOUDS BELOW 12,000 FEET
WITH NO SIGNIFICANT WEATHER AND/OR OBSTRUCTIONS TO VISIBILITY.

KYZ001>023-026-027-061>063-070>075-021200-
WESTERN AND SOUTH CENTRAL KENTUCKY

CITY           SKY/WX    TMP DP  RH WIND       PRES   REMARKS
PADUCAH        CLEAR     29  25  85 CALM      30.18R
HENDERSON      CLEAR     25  21  86 S3        30.19S
OWENSBORO      MOCLDY    27  26  96 CALM      30.20R
HOPKINSVILLE   CLEAR     30  27  90 CALM      30.17F
BOWLING GREEN  CLEAR     29  26  89 CALM      30.19S
GLASGOW        CLEAR     27  27 100 CALM      30.18S
$$

KYZ024-025-028>034-038-045-046-053-021200-
NORTH CENTRAL KENTUCKY

CITY           SKY/WX    TMP DP  RH WIND       PRES   REMARKS
LOUISVILLE/SDF PTCLDY    34  27  75 CALM      30.17R
LOUISVILLE/LOU PTCLDY    32  27  81 CALM      30.18R
FORT KNOX      CLEAR     27  26  96 CALM      30.15S
$$

KYZ035>037-039>044-047>052-055>060-089>105-021200-
NORTHEAST KENTUCKY

CITY           SKY/WX    TMP DP  RH WIND       PRES   REMARKS
LEXINGTON      CLEAR     28  24  85 SW7       30.16R WCI  21
COVINGTON      CLOUDY    36  30  79 W7        30.12R WCI  30
FRANKFORT      CLEAR     29  25  85 SW5       30.16R WCI  24
$$

KYZ054-064>069-076>088-106>120-021200-
SOUTHEAST KENTUCKY

CITY           SKY/WX    TMP DP  RH WIND       PRES   REMARKS
JACKSON        CLEAR     31  26  82 SW3       30.14R
LONDON         CLEAR     27  24  89 CALM      30.17R
SOMERSET       MOCLDY    28  28 100 CALM      30.20R
MIDDLESBORO    FOG       28  28 100 CALM      30.20R VSB 1
MONTICELLO     MOSUNNY   21  18  88 W12       30.21R WCI   9
$$





USA.gov is the U.S. government's official web portal to all federal, state and local government web resources and services.